User: anonymous   Login
Location: Muenchen
(48.1800°N, 11.5800°E)
Time: 13:00:55
(UTC+02:00)
Language:

Sich 1 Rocket - Orbit

View from above orbital plane
View from above orbital plane
View from above satellite
View from above satellite

Ground track
Ground track

The orbit data is extracted from the following two-line orbital elements,

1 23659U 95046C   16145.88379322  .00000082  00000-0  80577-5 0  9990
2 23659  82.5288 305.7251 0027121  65.7132  45.0975 14.78185744117187
Epoch (UTC): 24 May 2016 21:12:39
Eccentricity: 0.0027121
inclination: 82.5288°
perigee height: 616 km
apogee height: 654 km
right ascension of ascending node: 305.7251°
argument of perigee: 65.7132°
revolutions per day: 14.78185744
mean anomaly at epoch: 45.0975°
orbit number at epoch: 11718

The dashed part of the orbit path shows where the satellite is in the earth's shadow,  

DLR